Location: Wayah Bald
(35.1806°N, 83.5603°W)
Time: 23:41:06
(UTC-05:00)

Meteor 1-27 Rocket - Visible Passes

Search period start: 02 March 2015 00:00
Search period end: 12 March 2015 01:00
Orbit: 830 x 910 km, 81.3° (Epoch: 01 March)

Date Brightness Start Highest point End Pass type
(mag) Time Alt. Az. Time Alt. Az. Time Alt. Az.
02 Mar 5.8 03:52:31 21° ESE 03:54:14 24° E 03:58:53 10° NE visible
02 Mar 4.2 05:35:02 28° WSW 05:37:24 39° WNW 05:42:47 10° N visible
03 Mar 5.7 03:47:40 25° E 03:48:06 25° E 03:52:48 10° NE visible
03 Mar 4.3 05:30:10 35° W 05:31:17 37° WNW 05:36:37 10° N visible
04 Mar 5.7 03:42:32 25° E 03:42:32 25° E 03:46:44 10° NE visible
04 Mar 4.3 05:25:01 36° W 05:25:11 36° WNW 05:30:28 10° N visible
05 Mar 5.7 03:37:13 24° ENE 03:37:13 24° ENE 03:40:39 10° NE visible
05 Mar 4.4 05:19:42 34° WNW 05:19:42 34° WNW 05:24:18 10° N visible
06 Mar 5.9 03:31:46 23° ENE 03:31:46 23° ENE 03:34:34 10° NNE visible
06 Mar 4.7 05:14:14 30° NW 05:14:14 30° NW 05:18:08 10° NNW visible
07 Mar 6.0 03:26:13 20° NE 03:26:13 20° NE 03:28:29 10° NNE visible
07 Mar 4.9 05:08:41 27° NW 05:08:41 27° NW 05:11:58 10° NNW visible
08 Mar 6.1 04:20:35 18° NE 04:20:35 18° NE 04:22:25 10° NNE visible
08 Mar 5.1 06:03:03 24° NW 06:03:03 24° NW 06:05:48 10° NNW visible
09 Mar 6.2 04:14:54 17° NE 04:14:54 17° NE 04:16:19 10° NNE visible
09 Mar 5.3 05:57:21 21° NNW 05:57:21 21° NNW 05:59:36 10° NNW visible
10 Mar 6.3 04:09:09 15° NE 04:09:09 15° NE 04:10:14 10° NNE visible
10 Mar 5.5 05:51:36 18° NNW 05:51:36 18° NNW 05:53:26 10° NNW visible
11 Mar 6.4 04:03:21 14° NNE 04:03:21 14° NNE 04:04:08 10° NNE visible
11 Mar 5.6 05:45:48 16° NNW 05:45:48 16° NNW 05:47:16 10° NNW visible
